Regional Weather Roundup
Issued by NWS Huntsville, AL

Home | Current Version | Previous Version | Text Only | Print | Product List | Glossary On
Versions: 1 2 3 4 5 6 7 8 9 10 11 12 13 14 15 16 17 18 19 20 21 22 23 24 25 26 27 28
000
ASUS44 KHUN 290210
RWRHUN

WEATHER ROUNDUP FOR THE TENNESSEE VALLEY
NATIONAL WEATHER SERVICE HUNTSVILLE AL
900 PM CDT SUN MAY 28 2017

ALZ001>004-290300-
NORTHWEST ALABAMA

CITY           SKY/WX    TMP DP  RH WIND       PRES   REMARKS
COURTLAND HCN    N/A     73 N/A N/A W3          N/A
RUSSELLVILLE     N/A     72 N/A N/A MISG        N/A
SHOALS AIRPORT PTCLDY    72  64  76 W7        29.95R
SHOALS TVA RES   N/A     73 N/A N/A MISG        N/A
$$

ALZ005>007-016-290300-
NORTH CENTRAL ALABAMA

CITY           SKY/WX    TMP DP  RH WIND       PRES   REMARKS
CULLMAN AG STN   N/A     72 N/A N/A W5          N/A
DECATUR AP     CLEAR     74  66  76 W5        29.93S
HUNTSVILLE AP  PTCLDY    73  67  81 W3        29.93R
MERIDIANVILLE  CLEAR     72  63  73 CALM      29.92F
REDSTONE ARSN  CLEAR     73  66  78 W6        29.92R
VINEMONT AP    FAIR      70  65  83 CALM      29.97R
$$

ALZ008>010-290300-
NORTHEAST ALABAMA

CITY           SKY/WX    TMP DP  RH WIND       PRES   REMARKS
ALBERTVILLE    CLEAR     70  70 100 CALM      29.94R
FORT PAYNE     CLEAR     68  63  83 CALM      29.93S
SCOTTSBORO AP  PTCLDY    70  68  94 CALM      29.93R
SCOTTSBORO HCN   N/A     70 N/A N/A MISG        N/A
VALLEY HEAD      N/A     68 N/A N/A MISG        N/A
$$

TNZ076-096-097-290300-
SOUTHEASTERN MIDDLE TENNESSEE

CITY           SKY/WX    TMP DP  RH WIND       PRES   REMARKS
TULLAHOMA      PTCLDY    70  66  88 CALM      29.94S
WINCHESTER     PTCLDY    70  66  88 CALM        N/A
$$

...SURROUNDING SITES...

CITY           SKY/WX    TMP DP  RH WIND       PRES   REMARKS
ATLANTA        CLOUDY    75  66  73 W7        29.93S
ANNISTON       CLEAR     71  67  87 CALM      29.94R
BIRMINGHAM     MOCLDY    76  67  73 W5        29.96R
CHATTANOOGA    CLOUDY    72  65  78 CALM      29.92R
CORINTH        MOCLDY    72  66  83 SW5       29.95R
DALTON         CLOUDY    68  68 100 CALM      29.91R
GADSDEN        CLEAR     70  68  93 SW3       29.93S
GOLDEN TRNGL   CLEAR     73  63  68 W3        29.93R
HALEYVILLE     FAIR      72  66  81 W5        29.98R
JACKSON TN     CLEAR     70  67  90 CALM      29.94R
MEMPHIS        CLOUDY    74  69  85 S5        29.93S
NASHVILLE      MOCLDY    74  63  68 W5        29.91S
OXFORD MS      FAIR      70  66  88 CALM      29.97S
ROME           CLOUDY    72  68  87 W5        29.91S
SAVANNAH       PTCLDY    70  68  94 CALM      29.93R
SELMER         CLEAR     68  66  94 W3        29.94R
TUPELO         PTCLDY    74  65  73 CALM      29.95R
TUSCALOOSA     PTCLDY    75  67  76 W5        29.96R
$$

...GULF COAST WEATHER...

CITY           SKY/WX    TMP DP  RH WIND       PRES   REMARKS
GULFPORT       CLOUDY    81  75  82 S10G23    29.93R
PASCAGOULA     CLOUDY    80  73  79 VRB7      29.93R
MOBILE         CLOUDY    79  74  84 S12       29.94R
GULF SHORES    MOCLDY    78  78 100 S14G23    29.93R
PENSACOLA      PTCLDY    77  75  93 S14       29.92F
DESTIN         MOCLDY    81  81 100 VRB5      29.93F HX  92
PANAMA CITY    MOCLDY    78  75  90 SW10      29.98S
APPALACHICOLA  PTCLDY    80  78  94 SW13      29.99R
$$





USA.gov is the U.S. government's official web portal to all federal, state and local government web resources and services.